Regional Weather Roundup
Issued by NWS Sioux Falls, SD

Home | Current Version | Previous Version | Text Only | Print | Product List | Glossary Off
Versions: 1 2 3 4 5 6 7 8 9 10 11 12 13 14 15 16 17 18 19 20 21 22 23 24 25 26 27 28 29 30 31 32 33 34 35 36 37 38 39 40 41 42 43 44 45 46 47 48 49 50

000
ASUS43 KFSD 291302
RWRFSD

WEATHER ROUNDUP FOR SE SOUTH DAKOTA/SW MINNESOTA/NW IOWA
NATIONAL WEATHER SERVICE SIOUX FALLS SD
800 AM CDT FRI JUL 29 2016

NOTE: "FAIR" INDICATES FEW OR NO CLOUDS BELOW 12,000 FEET WITH NO
SIGNIFICANT WEATHER AND OR OBSTRUCTIONS TO VISIBILITY.


SDZ038>040-050-052>070-291400-
SOUTHEAST SOUTH DAKOTA

CITY           SKY/WX    TMP DP  RH WIND       PRES   REMARKS
BROOKINGS      SUNNY     61  57  87 CALM      30.10R
CHAMBERLAIN    CLOUDY    65  65 100 CALM      30.10R FOG
HURON          MOSUNNY   65  58  78 E3        30.09S
MADISON        FAIR      59  59 100 N3        30.11R
MITCHELL       SUNNY     63  59  87 N3        30.10R
SIOUX FALLS    MOSUNNY   63  57  81 NE3       30.09R
WINNER         CLOUDY    65  62  90 W5        30.11R
YANKTON        MOSUNNY   63  57  82 NE3       30.08R
$$

MNZ071-072-080-081-089-090-097-098-291400-
SOUTHWEST MINNESOTA

CITY           SKY/WX    TMP DP  RH WIND       PRES   REMARKS
FAIRMONT       CLOUDY    63  57  82 N6        30.05R
JACKSON        PTSUNNY   63  59  88 NW3       30.08R
LUVERNE        SUNNY     61  55  82 NE6       30.09R
MARSHALL       SUNNY     60  57  89 NW6       30.09S
MONTEVIDEO     SUNNY     64  59  82 NE3       30.11R
REDWOOD FALLS  SUNNY     63  56  78 N3        30.07S
TRACY          SUNNY     61  58  90 CALM      30.09R
WINDOM         SUNNY     63  57  82 N6        30.08R
WORTHINGTON    SUNNY     61  58  90 N8        30.10R
$$

IAZ001>003-012>014-020>022-031-032-NEZ013-014-SDZ071-291400-
NORTHWEST IOWA

CITY           SKY/WX    TMP DP  RH WIND       PRES   REMARKS
CHEROKEE       PTSUNNY   61  61  98 N5        30.07R
DENISON        SUNNY     63  63 100 NE6       30.04R
ESTHERVILLE    CLOUDY    63  61  93 N7        30.06R
LE MARS        MOSUNNY   63  59  88 CALM      30.09R
SHELDON        CLOUDY    61  59  94 N3        30.07R
SIOUX CITY     PTSUNNY   67  61  81 N5        30.07R
SPENCER        CLOUDY    63  59  87 N6        30.07R
STORM LAKE     MOSUNNY   64  61  88 N8        30.07R
$$

ABBREVIATIONS USED IN REMARKS
   TC - TEMPERATURE IN CELSIUS
  WCI - WIND CHILL INDEX
   HX - HEAT INDEX
  VSB - VISIBILITY





USA.gov is the U.S. government's official web portal to all federal, state and local government web resources and services.